Probability
0 0 0 0 0 0 0 0 0 0 0 0 0 0 0 0 0 0 0 0 0 0 0 0 0 0 0 0 0 0 0 0 0 0 0 0 0 0 0 0 0 0 0 0
0 0 0 0 0 0 0 0 0 0 0 0 0 0 0 0 0 0 0 0 0 0 0 0 0 0 0 0 0 0 0 0 0 0 0 0 0 0 0 0 0 0 0 0
0 0 0 0 0 0 0 0 0 0 0 0 0 0 0 0 0 0 0 0 0 0 0 0 0 0 0 0 0 0 0 0 0 0 0 0 0 0 0 0 0 0 0 0
0 0 0 0 0 0 0 0 0 0 0 0 0 0 0 0 0 0 0 0 0 0 0 0 0 0 0 0 0 0 0 0 0 0 0 0 0 0 0 0 0 0 0 0
0 0 0 0 0 0 0 0 0 0 0 0 0 0 0 0 0 0 0 0 0 0 0 0 0 0 0 0 0 0 0 0 0 0 0 0 0 0 0 0 0 0 0 0
0 0 0 0 0 0 0 0 0 0 0 0 0 0 0 0 0 0 0 0 0 0 0 0 0 0 0 0 0 0 0 0 0 0 0 0 0 0 0 0 0 0 0 0
0 0 0 0 0 0 0 0 0 0 0 0 0 0 0 0 0 0 0 0 0 0 0 0 0 0 0 0 0 0 0 0 0 0 0 0 0 0 0 0 0 0 0 0
0 0 0 0 0 0 0 0 0 0 0 0 0 0 0 0 0 0 0 0 0 0 0 0 0 0 0 0 0 0 0 0 0 0 0 0 0 0 0 0 0 0 0 0
0 0 0 0 0 0 0 0 0 0 0 0 0 0 0 0 0 0 0 0 0 0 0 0 0 0 0 0 0 0 0 0 0 0 0 0 0 0 0 0 0 0 0 0
0 0 0 0 0 0 0 0 0 0 0 0 0 0 0 0 0 0 0 0 0 0 0 0 0 0 0 0 0 0 0 0 0 0 0 0 0 0 0 0 0 0 0 0
0 0 0 0 0 0 0 0 0 0 0 0 0 0 0 0 0 0 0 0 0 0 0 0 0 0 0 0 0 0 0 0 0 0 0 0 0 0 0 0 0 0 0 0
0 0 0 0 0 0 0 0 0 0 0 0 0 0 0 0 0 0 0 0 0 0 0 0 0 0 0 0 0 0 0 0 0 0 0 0 0 0 0 0 0 0 0 0
0 0 0 0 0 0 0 0 0 0 0 0 0 0 0 0 0 0 0 0 0 0 0 0 0 0 0 0 0 0 0 0 0 0 0 0 0 0 0 0 0 0 0 0
0 0 0 0 0 0 0 0 0 0 0 0 0 0 0 0 0 0 0 0 0 0 0 0 0 0 0 0 0 0 0 0 0 0 0 0 0 0 0 0 0 0 0 0
0 0 0 0 0 0 0 0 0 0 0 0 0 0 0 0 0 0 0 0 0 0 0 0 0 0 0 0 0 0 0 0 0 0 0 0 0 0 0 0 0 0 0 0
0 0 0 0 0 0 0 0 0 0 0 0 0 0 0 0 0 0 0 0 0 0 0 0 0 0 0 0 0 0 0 0 0 0 0 0 0 0 0 0 0 0 0 0
0 0 0 0 0 0 0 0 0 0 0 0 0 0 0 0 0 0 0 0 0 0 0 0 0 0 0 0 0 0 0 0 0 0 0 0 0 0 0 0 0 0 0 0
0 0 0 0 0 0 0 0 0 0 0 0 0 0 0 0 0 0 0 0 0 0 0 0 0 0 0 0 0 0 0 0 0 0 0 0 0 0 0 0 0 0 0 0
0 0 0 0 0 0 0 0 0 0 0 0 0 0 0 0 0 0 0 0 0 0 0 0 0 0 0 0 0 0 0 0 0 0 0 0 0 0 0 0 0 0 0 0
0 0 0 0 0 0 0 0 0 0 0 0 0 0 0 0 0 0 0 0 0 0 0 0 0 0 0 0 0 0 0 0 0 0 0 0 0 0 0 0 0 0 0 0
0 0 0 0 0 0 0 0 0 0 0 0 0 0 0 0 0 0 0 0 0 0 0 0 0 0 0 0 0 0 0 0 0 0 0 0 0 0 0 0 0 0 0 0
0 0 0 0 0 0 0 0 0 0 0 0 0 0 0 0 0 0 0 0 0 0 0 0 0 0 0 0 0 0 0 0 0 0 0 0 0 0 0 0 0 0 0 0
0 0 0 0 0 0 0 0 0 0 0 0 0 0 0 0 0 0 0 0 0 0 0 0 0 0 0 0 0 0 0 0 0 0 0 0 0 0 0 0 0 0 0 0
0 0 0 0 0 0 0 0 0 0 0 0 0 0 0 0 0 0 0 0 0 0 0 0 0 0 0 0 0 0 0 0 0 0 0 0 0 0 0 0 0 0 0 0
0 0 0 0 0 0 0 0 0 0 0 0 0 0 0 0 0 0 0 0 0 0 0 0 0 0 0 0 0 0 0 0 0 0 0 0 0 0 0 0 0 0 0 0
0 0 0 0 0 0 0 0 0 0 0 0 0 0 0 0 0 0 0 0 0 0 0 0 0 0 0 0 0 0 0 0 0 0 0 0 0 0 0 0 0 0 0 0
0 0 0 0 0 0 0 0 0 0 0 0 0 0 0 0 0 0 0 0 0 0 0 0 0 0 0 0 0 0 0 0 0 0 0 0 0 0 0 0 0 0 0 0
Wind_Speed
3 1 5 6 11 14 13 11 10 9 9 7 5 2 2 2 2 2 2 2 2 2 2 2 2 2 2 2 2 2 2 3 4 4 5 5 6 7 8 8 9 9 9 10
3 3 3 5 9 13 14 13 12 9 10 6 4 3 3 3 3 3 3 2 2 2 3 3 3 2 2 2 2 2 2 3 3 4 5 6 7 7 8 9 9 9 9 10
4 3 2 8 10 12 10 11 11 14 11 4 5 5 5 4 4 4 3 3 3 3 3 3 3 2 3 2 2 2 3 3 4 4 5 6 7 8 8 9 9 9 10 10
3 4 9 4 2 9 10 9 10 8 5 5 5 3 3 3 4 4 3 3 3 3 3 2 2 2 2 2 2 2 3 3 4 5 6 7 7 8 9 8 8 9 10 10
4 6 7 4 3 5 8 6 7 9 7 5 2 2 3 2 3 3 3 3 2 2 2 1 1 1 1 1 2 2 3 4 4 5 6 7 8 9 8 8 8 9 9 10
4 6 7 2 1 3 5 4 3 6 6 3 4 4 2 1 1 2 1 1 1 0 1 1 1 1 2 2 2 3 4 4 5 5 6 7 8 8 8 8 8 8 9 9
6 6 4 2 1 5 6 1 1 3 3 3 4 2 1 1 1 1 1 1 0 0 0 1 1 1 2 2 3 3 4 4 5 5 6 6 7 7 7 7 8 8 8 8
5 6 5 2 5 5 0 2 1 1 2 2 2 1 1 1 1 1 1 1 1 1 1 1 1 1 2 3 3 3 4 4 5 6 5 5 6 7 7 7 7 7 7 8
5 3 1 3 2 0 1 1 1 0 0 1 2 1 0 0 1 1 1 1 1 1 1 2 1 1 2 3 3 3 4 5 5 6 5 5 5 6 6 6 5 6 6 7
3 3 2 1 1 1 1 2 2 1 0 1 1 1 1 0 0 1 1 1 1 1 1 2 2 2 2 3 3 3 4 5 5 5 6 5 4 4 5 5 5 6 6 7
4 3 2 2 2 2 1 1 1 2 1 0 1 1 1 1 0 0 1 1 1 1 2 3 3 3 3 3 3 4 4 5 5 5 5 5 5 4 5 5 6 7 6 6
4 2 2 2 2 2 1 2 2 1 1 0 1 1 1 1 0 0 1 1 1 2 2 3 3 3 4 3 3 3 4 4 4 4 4 4 5 5 5 6 9 10 10 10
3 4 3 2 2 2 1 2 2 1 1 0 0 1 1 0 0 1 1 2 2 2 3 3 3 3 4 4 4 4 4 4 4 4 4 5 5 6 6 6 7 8 9 10
2 2 1 1 2 3 2 2 2 2 2 2 1 1 1 1 1 1 2 2 2 2 2 2 3 3 4 4 4 4 4 4 5 4 4 5 5 5 5 6 7 6 7 9
3 2 1 1 2 2 2 2 3 2 3 3 2 2 1 1 1 2 2 2 2 2 2 3 3 4 4 4 4 4 4 4 4 4 4 4 4 5 5 5 6 6 6 6
3 2 2 1 1 2 2 2 2 2 2 2 2 2 2 1 1 2 2 2 2 2 3 3 3 4 4 4 4 4 3 5 6 5 4 4 4 4 4 5 5 5 6 6
1 1 1 1 1 2 2 1 1 1 1 1 1 1 1 1 1 2 2 2 2 2 3 3 4 4 4 4 4 4 4 4 6 5 4 4 4 4 4 4 4 5 5 6
2 2 1 1 0 1 1 2 1 1 1 1 1 1 1 1 2 2 3 3 2 3 3 4 4 4 4 4 4 3 4 4 4 4 4 4 4 4 4 4 5 5 5 6
3 2 2 2 1 1 1 1 1 1 1 1 1 1 1 2 2 2 2 2 3 3 4 5 7 5 5 5 5 4 4 4 4 4 4 5 5 4 4 4 4 5 5 5
3 3 3 3 3 2 1 1 1 1 1 1 1 1 1 2 2 2 2 2 3 3 5 6 5 5 5 5 5 4 4 4 4 4 4 4 4 4 4 4 4 4 4 4
3 3 3 3 3 3 2 1 1 2 2 1 1 1 1 2 2 2 2 2 3 4 5 6 4 4 4 5 5 4 4 4 4 4 4 4 4 4 4 4 4 4 4 4
3 3 3 3 3 3 3 2 2 2 2 2 2 2 2 2 3 2 2 2 4 6 5 4 4 5 6 6 4 4 4 4 4 4 4 4 4 4 4 4 4 4 4 4
2 2 2 2 2 2 3 3 3 2 2 2 2 2 2 3 3 3 3 3 4 6 5 4 6 8 8 5 3 4 4 4 4 4 4 4 4 4 4 4 4 3 3 3
2 2 2 2 2 3 3 3 3 2 2 2 2 2 2 2 2 2 3 5 7 8 5 6 9 9 8 4 4 4 4 4 4 4 4 4 4 4 4 4 4 3 3 4
2 2 2 2 2 2 2 2 2 2 3 2 3 3 2 2 2 3 4 5 7 7 5 6 9 9 6 4 4 4 4 4 4 4 4 4 4 4 4 4 3 3 3 3
2 2 2 2 1 1 1 1 1 2 2 2 3 3 3 3 3 3 3 4 6 6 5 4 5 5 4 4 4 5 4 5 5 4 4 4 4 4 4 4 4 3 3 3
2 2 1 1 2 2 1 1 2 2 2 2 3 3 3 3 3 4 4 4 4 4 4 4 4 4 4 4 4 4 4 4 4 4 4 4 4 4 4 4 3 3 3 2
Wind_Direction
247 199 171 197 199 197 208 221 230 235 233 233 236 232 208 186 174 184 192 203 216 223 221 219 219 223 232 243 245 246 254 266 277 287 292 293 294 295 296 294 293 292 291 289
219 208 210 226 216 207 218 227 237 251 254 251 247 249 247 227 209 222 221 229 245 252 250 244 233 231 234 243 254 255 262 277 291 297 299 299 299 300 300 299 298 296 293 293
214 201 230 244 221 206 210 216 218 233 243 221 226 238 243 235 223 228 239 249 253 260 263 261 250 237 235 243 253 261 275 289 298 301 301 302 304 304 303 301 300 298 297 296
176 176 229 243 204 203 211 227 225 238 249 233 239 245 262 249 238 239 247 254 261 271 275 272 258 250 252 247 251 269 284 294 303 305 303 305 304 304 305 303 300 298 296 296
192 218 252 257 198 191 201 236 231 231 244 243 212 240 242 229 243 252 255 257 260 267 267 262 250 243 241 254 269 279 290 300 305 304 302 303 304 307 309 306 303 300 298 297
202 216 230 252 146 192 179 232 226 214 224 219 176 218 213 48 277 268 275 243 246 263 251 254 259 227 230 255 273 286 296 300 303 301 298 298 303 306 306 303 300 300 298 298
215 229 251 334 147 167 194 212 38 199 202 185 197 243 43 13 350 343 21 37 87 162 231 314 295 244 252 272 285 301 306 303 303 302 301 303 305 306 306 304 301 302 303 303
200 216 226 104 147 181 25 33 42 108 162 182 192 149 60 18 25 44 52 44 37 41 7 355 331 273 275 290 308 313 308 303 304 307 309 306 308 308 306 304 303 307 309 309
203 218 18 151 167 136 27 10 5 4 342 174 177 192 178 17 38 47 51 43 24 24 3 349 331 301 291 310 316 310 306 306 309 310 309 306 305 307 307 306 305 308 309 310
215 237 254 215 266 315 337 349 355 8 38 176 200 199 173 125 84 72 45 33 27 15 350 345 346 330 312 313 311 304 305 307 309 310 310 312 308 305 305 306 305 306 308 312
234 269 286 264 280 296 321 349 2 4 11 197 180 187 173 158 147 70 20 8 358 338 325 328 335 334 330 320 311 307 306 305 307 308 308 309 308 305 302 300 305 308 309 309
244 237 242 263 292 314 317 313 317 335 353 15 187 182 169 164 115 6 354 342 326 316 310 315 323 327 330 323 311 305 302 304 305 308 312 311 311 309 299 297 310 310 308 308
285 302 290 283 320 358 352 330 327 318 262 188 58 125 135 127 9 352 337 322 311 308 306 308 314 322 327 324 314 304 300 303 305 307 311 312 313 312 314 317 313 311 316 320
297 295 273 316 346 1 17 23 44 52 54 63 70 75 85 73 28 351 333 326 318 308 307 311 315 320 324 319 312 306 305 305 306 303 305 306 307 308 309 314 317 319 325 330
329 312 270 345 29 35 45 68 76 64 54 48 51 57 61 51 9 346 339 334 327 323 324 322 319 322 327 321 314 310 310 312 308 303 304 305 306 306 306 308 309 314 320 327
338 27 86 91 73 57 52 59 70 55 42 39 39 37 31 29 9 353 345 332 316 318 323 321 319 321 325 320 315 309 306 311 310 304 304 305 306 306 306 308 311 314 317 323
343 25 51 58 34 30 24 28 56 49 34 33 24 21 18 19 10 2 355 345 331 320 321 321 319 321 320 317 312 307 306 307 310 304 303 304 303 301 302 305 307 310 313 322
325 311 296 254 240 43 32 28 40 40 20 3 14 26 14 358 341 340 342 340 341 345 343 335 327 321 318 318 315 307 303 303 304 304 304 302 301 300 301 303 305 308 313 322
25 38 47 50 66 92 68 38 29 30 24 23 25 10 354 340 333 331 331 337 338 334 337 336 329 323 320 322 320 304 302 302 303 302 301 303 304 304 303 303 305 307 313 319
37 48 56 57 56 67 71 50 43 45 31 24 34 25 10 355 345 339 334 333 331 323 320 321 321 319 318 316 318 305 304 304 304 305 305 305 306 306 304 305 307 310 315 318
32 43 50 51 47 42 39 31 49 49 33 32 44 32 359 346 343 333 322 326 334 332 324 322 320 319 319 317 314 308 307 306 306 306 307 307 307 307 306 307 309 312 315 318
22 40 45 46 53 42 28 31 47 52 46 41 38 26 3 347 342 334 319 308 318 325 323 318 318 321 322 318 309 309 308 307 306 306 306 308 308 309 311 312 311 314 315 317
18 33 42 44 51 50 41 37 38 41 37 25 14 359 346 335 329 323 325 328 322 325 323 317 321 323 324 319 312 311 311 309 307 306 305 306 305 304 304 306 306 309 313 318
25 34 42 47 60 63 46 30 26 26 18 4 358 343 329 324 326 319 309 316 325 324 319 320 324 327 326 319 315 313 311 309 306 305 305 304 302 301 301 302 303 307 312 316
26 38 49 54 54 45 36 28 26 20 12 6 359 351 336 322 313 318 318 316 319 322 317 320 326 327 325 316 314 311 309 308 308 306 302 302 303 302 303 303 303 305 309 311
25 30 28 27 21 12 10 7 6 1 355 351 348 343 338 329 318 312 310 312 314 315 314 311 315 319 315 312 310 309 307 308 309 307 305 304 302 301 301 301 302 302 303 304
36 34 36 33 22 13 3 354 345 340 338 331 324 326 327 324 321 321 318 315 315 316 314 314 314 314 312 310 308 307 305 305 305 305 305 304 303 301 300 301 299 299 300 297